Olivia, MN

7:21 PM CST on December 03, 2016 (GMT -0600)
Olivia Regional

Weather History for KOVL - February, 2013

Change the Weather History Date:

Wednesday, February 27, 2013

  Actual Average (KRWF) Record (KRWF)
Temperature  
Mean Temperature 20 °F -  
Max Temperature 28 °F 33 °F 60 °F (2016)
Min Temperature 12 °F 20 °F -17 °F (1962)
Degree Days  
Heating Degree Days 45    
Moisture  
Dew Point 16 °F    
Average Humidity 83    
Maximum Humidity 93    
Minimum Humidity 74    
Precipitation  
Precipitation 0.00 in - - ()
Sea Level Pressure  
Sea Level Pressure 29.97 in    
Wind  
Wind Speed 14 mph (NW)    
Max Wind Speed 24 mph    
Max Gust Speed 33 mph    
Visibility 8 miles    
Events      
Averages and records for this station are not official NWS values.
T = Trace of Precipitation, MM = Missing Value Source: NWS Daily Summary

Daily Weather History Graph

Daily Weather History Graph

Search for Another Location

Airport or City:

Trip Planner

Search our weather history database for the weather conditions in past years. The results will help you decide how hot, cold, wet, or windy it might be!

Date:

Astronomy

Feb. 27, 2013 Rise Set
Actual Time 7:00 AM CST 6:05 PM CST
Civil Twilight 6:31 AM CST 6:34 PM CST
Nautical Twilight 5:57 AM CST 7:08 PM CST
Astronomical Twilight 5:23 AM CST 7:42 PM CST
Moon 8:36 PM CST (2/27) 7:29 AM CST (2/27)
Length of Visible Light 12h 03m
Length of Day
11h 04m
Waning Gibbous, 96% of the Moon is Illuminated
Feb 27
Waning Gibbous
Mar 4
Last Quarter
Mar 11
New
Mar 19
First Quarter
Mar 27
Full

Hourly Weather History & Observations

Time (CST) Temp. Windchill Dew Point Humidity Pressure Visibility Wind Dir Wind Speed Gust Speed Precip Events Conditions
12:11 AM 17.6 °F 4.3 °F 14.0 °F 86% 29.92 in 7.0 mi NW 12.7 mph - N/A   Clear
12:31 AM 17.6 °F 6.4 °F 14.0 °F 86% 29.92 in 7.0 mi NW 9.2 mph - N/A   Clear
12:51 AM 17.6 °F 6.4 °F 14.0 °F 86% 29.92 in 7.0 mi NW 9.2 mph - N/A   Clear
1:11 AM 15.8 °F 3.4 °F 12.2 °F 86% 29.92 in 7.0 mi NW 10.4 mph - N/A   Clear
1:31 AM 17.6 °F 5.0 °F 14.0 °F 86% 29.92 in 7.0 mi NW 11.5 mph - N/A   Clear
1:50 AM 17.6 °F 5.7 °F 14.0 °F 86% 29.92 in 7.0 mi NW 10.4 mph - N/A   Clear
2:11 AM 17.6 °F 4.3 °F 14.0 °F 86% 29.92 in 7.0 mi NW 12.7 mph - N/A   Clear
2:31 AM 17.6 °F 3.7 °F 14.0 °F 86% 29.92 in 7.0 mi NW 13.8 mph - N/A   Clear
2:51 AM 17.6 °F 3.7 °F 14.0 °F 86% 29.91 in 7.0 mi NW 13.8 mph - N/A   Clear
3:11 AM 17.6 °F 3.2 °F 12.2 °F 79% 29.91 in 7.0 mi NW 15.0 mph - N/A   Clear
3:31 AM 15.8 °F 1.4 °F 12.2 °F 86% 29.91 in 7.0 mi NW 13.8 mph - N/A   Clear
3:51 AM 15.8 °F 2.1 °F 12.2 °F 86% 29.92 in 7.0 mi NW 12.7 mph - N/A   Clear
4:11 AM 15.8 °F 2.1 °F 12.2 °F 86% 29.92 in 7.0 mi NW 12.7 mph - N/A   Clear
4:31 AM 15.8 °F 0.9 °F 12.2 °F 86% 29.92 in 7.0 mi NW 15.0 mph - N/A   Clear
4:51 AM 15.8 °F 2.1 °F 12.2 °F 86% 29.93 in 10.0 mi NW 12.7 mph - N/A   Clear
5:11 AM 15.8 °F 1.4 °F 12.2 °F 86% 29.92 in 10.0 mi NW 13.8 mph - N/A   Clear
5:31 AM 15.8 °F 2.1 °F 12.2 °F 86% 29.93 in 10.0 mi NW 12.7 mph - N/A   Clear
5:51 AM 15.8 °F 2.1 °F 12.2 °F 86% 29.93 in 10.0 mi NW 12.7 mph - N/A   Clear
6:11 AM 12.2 °F -1.0 °F 8.6 °F 85% 29.93 in 10.0 mi NW 10.4 mph - N/A   Clear
6:31 AM 12.2 °F -2.5 °F 8.6 °F 85% 29.94 in 10.0 mi NW 12.7 mph - N/A   Clear
6:51 AM 12.2 °F -2.5 °F 8.6 °F 85% 29.94 in 10.0 mi NW 12.7 mph - N/A   Clear
7:11 AM 12.2 °F -1.8 °F 8.6 °F 85% 29.95 in 10.0 mi NW 11.5 mph - N/A   Clear
7:31 AM 12.2 °F -3.1 °F 8.6 °F 85% 29.95 in 10.0 mi NW 13.8 mph - N/A   Clear
7:50 AM 14.0 °F -0.2 °F 8.6 °F 79% 29.96 in 10.0 mi NW 12.7 mph - N/A   Clear
8:11 AM 15.8 °F 1.4 °F 10.4 °F 79% 29.96 in 10.0 mi NW 13.8 mph - N/A   Clear
8:31 AM 15.8 °F 1.4 °F 10.4 °F 79% 29.96 in 10.0 mi NW 13.8 mph - N/A   Clear
8:51 AM 17.6 °F 4.3 °F 12.2 °F 79% 29.97 in 10.0 mi NW 12.7 mph - N/A   Clear
9:10 AM 17.6 °F 5.0 °F 12.2 °F 79% 29.97 in 10.0 mi NW 11.5 mph - N/A   Clear
9:31 AM 21.2 °F 10.1 °F 14.0 °F 74% 29.97 in 10.0 mi NW 10.4 mph - N/A   Clear
9:51 AM 21.2 °F 8.3 °F 14.0 °F 74% 29.97 in 7.0 mi NW 13.8 mph - N/A   Clear
10:10 AM 21.2 °F 8.9 °F 14.0 °F 74% 29.97 in 7.0 mi NW 12.7 mph - N/A   Clear
10:31 AM 21.2 °F 8.3 °F 15.8 °F 80% 29.97 in 7.0 mi NW 13.8 mph - N/A   Clear
10:51 AM 23.0 °F 10.6 °F 17.6 °F 80% 29.97 in 10.0 mi NW 13.8 mph - N/A   Clear
11:11 AM 23.0 °F 11.1 °F 17.6 °F 80% 29.96 in 10.0 mi NW 12.7 mph - N/A   Clear
11:31 AM 26.6 °F 15.2 °F 19.4 °F 74% 29.96 in 10.0 mi NW 13.8 mph 19.6 mph N/A   Clear
11:51 AM 26.6 °F 14.3 °F 19.4 °F 74% 29.96 in 10.0 mi NW 16.1 mph - N/A   Clear
12:11 PM 28.4 °F 16.2 °F 21.2 °F 74% 29.95 in 10.0 mi NW 17.3 mph - N/A   Clear
12:30 PM 28.4 °F 16.2 °F 21.2 °F 74% 29.94 in 10.0 mi NW 17.3 mph 23.0 mph N/A   Clear
12:51 PM 26.6 °F 12.4 °F 21.2 °F 80% 29.94 in 10.0 mi NW 21.9 mph 27.6 mph N/A   Clear
1:10 PM 26.6 °F 12.4 °F 19.4 °F 74% 29.95 in 10.0 mi NW 21.9 mph 26.5 mph N/A   Clear
1:31 PM 26.6 °F 13.4 °F 19.4 °F 74% 29.95 in 10.0 mi NW 18.4 mph 27.6 mph N/A   Clear
1:51 PM 26.6 °F 12.0 °F 19.4 °F 74% 29.94 in 10.0 mi NW 23.0 mph 28.8 mph N/A   Clear
2:10 PM 28.4 °F 17.0 °F 21.2 °F 74% 29.95 in 10.0 mi NW 15.0 mph 24.2 mph N/A   Clear
2:31 PM 28.4 °F 15.4 °F 21.2 °F 74% 29.96 in 7.0 mi NW 19.6 mph 27.6 mph N/A   Clear
2:51 PM 28.4 °F 16.2 °F 23.0 °F 80% 29.96 in 7.0 mi NW 17.3 mph 23.0 mph N/A   Clear
3:10 PM 26.6 °F 13.4 °F 21.2 °F 80% 29.96 in 5.0 mi NW 18.4 mph - N/A   Haze
3:31 PM 26.6 °F 11.7 °F 21.2 °F 80% 29.96 in 5.0 mi NW 24.2 mph 28.8 mph N/A   Haze
3:51 PM 26.6 °F 11.7 °F 21.2 °F 80% 29.96 in 5.0 mi NW 24.2 mph 33.4 mph N/A   Haze
4:11 PM 26.6 °F 12.4 °F 21.2 °F 80% 29.97 in 5.0 mi NW 21.9 mph 27.6 mph N/A   Clear
4:30 PM 23.0 °F 7.2 °F 19.4 °F 86% 29.97 in 4.0 mi NW 23.0 mph 28.8 mph N/A   Clear
4:51 PM 23.0 °F 8.0 °F 19.4 °F 86% 29.97 in 4.0 mi NW 20.7 mph 26.5 mph N/A   Scattered Clouds
5:11 PM 23.0 °F 8.0 °F 19.4 °F 86% 29.98 in 4.0 mi NW 20.7 mph 32.2 mph N/A   Scattered Clouds
5:31 PM 23.0 °F 8.3 °F 19.4 °F 86% 29.99 in 5.0 mi NW 19.6 mph 24.2 mph N/A   Clear
5:50 PM 23.0 °F 8.3 °F 19.4 °F 86% 29.99 in 5.0 mi NW 19.6 mph 25.3 mph N/A   Clear
6:11 PM 21.2 °F 6.4 °F 19.4 °F 93% 30.00 in 5.0 mi NW 18.4 mph - N/A   Clear
6:31 PM 21.2 °F 6.8 °F 19.4 °F 93% 30.00 in 7.0 mi NW 17.3 mph 24.2 mph N/A   Clear
6:51 PM 21.2 °F 6.4 °F 19.4 °F 93% 30.01 in 7.0 mi NW 18.4 mph 24.2 mph N/A   Clear
7:11 PM 21.2 °F 7.3 °F 19.4 °F 93% 30.01 in 10.0 mi NW 16.1 mph - N/A   Clear
7:30 PM 21.2 °F 6.4 °F 19.4 °F 93% 30.01 in 10.0 mi NW 18.4 mph - N/A   Clear
7:51 PM 21.2 °F 7.3 °F 19.4 °F 93% 30.02 in 10.0 mi NW 16.1 mph - N/A   Clear
8:11 PM 21.2 °F 7.8 °F 19.4 °F 93% 30.02 in 10.0 mi NW 15.0 mph - N/A   Clear
8:31 PM 21.2 °F 7.8 °F 19.4 °F 93% 30.02 in 10.0 mi NW 15.0 mph - N/A   Clear
8:51 PM 21.2 °F 7.8 °F 19.4 °F 93% 30.02 in 10.0 mi NW 15.0 mph - N/A   Clear
9:11 PM 21.2 °F 7.3 °F 17.6 °F 86% 30.03 in 10.0 mi NW 16.1 mph - N/A   Clear
9:31 PM 21.2 °F 7.8 °F 17.6 °F 86% 30.03 in 10.0 mi NW 15.0 mph - N/A   Clear
9:51 PM 21.2 °F 10.1 °F 17.6 °F 86% 30.05 in 10.0 mi NW 10.4 mph - N/A   Clear
10:10 PM 21.2 °F 10.1 °F 17.6 °F 86% 30.06 in 10.0 mi NNW 10.4 mph - N/A   Clear
10:31 PM 19.4 °F 9.5 °F 15.8 °F 86% 30.06 in 10.0 mi NNW 8.1 mph - N/A   Clear
10:51 PM 19.4 °F 8.6 °F 15.8 °F 86% 30.06 in 10.0 mi NNW 9.2 mph - N/A   Clear
11:11 PM 19.4 °F 8.6 °F 14.0 °F 80% 30.06 in 10.0 mi NNW 9.2 mph - N/A   Clear
11:30 PM 17.6 °F 7.3 °F 14.0 °F 86% 30.06 in 10.0 mi NNW 8.1 mph - N/A   Clear